Weather History for KGDV - February, 2013

Change the Weather History Date:

Tuesday, February 26, 2013

  Actual Average Record
Temperature  
Mean Temperature 30 °F -  
Max Temperature 37 °F 29 °F 48 °F (2005)
Min Temperature 24 °F 10 °F -27 °F (2011)
Degree Days  
Heating Degree Days 34    
Moisture  
Dew Point 23 °F    
Average Humidity 68    
Maximum Humidity 75    
Minimum Humidity 56    
Precipitation  
Precipitation 0.00 in - - ()
Sea Level Pressure  
Sea Level Pressure 29.97 in    
Wind  
Wind Speed 12 mph (WNW)    
Max Wind Speed 25 mph    
Max Gust Speed 34 mph    
Visibility 10 miles    
Events      
Averages and records for this station are not official NWS values.
T = Trace of Precipitation, MM = Missing Value Source: NWS Daily Summary

Daily Weather History Graph

Daily Weather History Graph

Search for Another Location

Airport or City:

Trip Planner

Search our weather history database for the weather conditions in past years. The results will help you decide how hot, cold, wet, or windy it might be!

Date:

Astronomy

Feb. 26, 2013 Rise Set
Actual Time 6:44 AM MST 5:40 PM MST
Civil Twilight 6:13 AM MST 6:11 PM MST
Nautical Twilight 5:38 AM MST 6:46 PM MST
Astronomical Twilight 5:02 AM MST 7:22 PM MST
Moon 7:09 PM MST (2/26) 6:41 AM MST (2/26)
Length of Visible Light 11h 57m
Length of Day
10h 56m
Full, 99% of the Moon is Illuminated
Feb 26
Full
Mar 4
Last Quarter
Mar 11
New
Mar 19
First Quarter
Mar 27
Full

Hourly Weather History & Observations

Time (MST) Temp. Windchill Dew Point Humidity Pressure Visibility Wind Dir Wind Speed Gust Speed Precip Events Conditions
12:15 AM 26.6 °F 19.1 °F 19.4 °F 74% 29.79 in 10.0 mi WSW 6.9 mph - N/A   Clear
12:35 AM 26.6 °F 21.2 °F 19.4 °F 74% 29.79 in 10.0 mi West 4.6 mph - N/A   Clear
12:55 AM 26.6 °F 21.2 °F 17.6 °F 69% 29.79 in 10.0 mi WNW 4.6 mph - N/A   Clear
1:15 AM 24.8 °F 16.9 °F 17.6 °F 74% 29.80 in 10.0 mi WNW 6.9 mph - N/A   Clear
1:35 AM 24.8 °F 19.1 °F 17.6 °F 74% 29.80 in 10.0 mi West 4.6 mph - N/A   Clear
1:55 AM 26.6 °F - 19.4 °F 74% 29.80 in 10.0 mi Calm Calm - N/A   Clear
2:15 AM 32.0 °F 26.4 °F 21.2 °F 64% 29.80 in 10.0 mi NW 5.8 mph - N/A   Clear
2:35 AM 35.6 °F 26.2 °F 26.6 °F 70% 29.80 in 10.0 mi NW 15.0 mph - N/A   Clear
2:55 AM 37.4 °F 28.5 °F 26.6 °F 65% 29.81 in 10.0 mi WNW 15.0 mph - N/A   Clear
3:15 AM 37.4 °F 29.3 °F 26.6 °F 65% 29.81 in 10.0 mi WNW 12.7 mph - N/A   Clear
3:35 AM 37.4 °F 30.3 °F 26.6 °F 65% 29.81 in 10.0 mi WNW 10.4 mph - N/A   Clear
3:55 AM 35.6 °F 27.1 °F 26.6 °F 70% 29.82 in 10.0 mi West 12.7 mph - N/A   Clear
4:15 AM 35.6 °F 28.6 °F 26.6 °F 70% 29.82 in 10.0 mi West 9.2 mph - N/A   Scattered Clouds
4:35 AM 33.8 °F 28.6 °F 24.8 °F 70% 29.83 in 10.0 mi WNW 5.8 mph - N/A   Mostly Cloudy
4:55 AM 35.6 °F 29.2 °F 26.6 °F 70% 29.84 in 10.0 mi NW 8.1 mph - N/A   Overcast
5:15 AM 35.6 °F 29.2 °F 24.8 °F 65% 29.86 in 10.0 mi NW 8.1 mph - N/A   Mostly Cloudy
5:35 AM 35.6 °F 29.9 °F 24.8 °F 65% 29.86 in 10.0 mi NW 6.9 mph - N/A   Scattered Clouds
5:55 AM 33.8 °F 28.6 °F 24.8 °F 70% 29.87 in 10.0 mi NW 5.8 mph - N/A   Partly Cloudy
6:35 AM 33.8 °F 25.8 °F 24.8 °F 70% 29.88 in 10.0 mi West 10.4 mph - N/A   Partly Cloudy
6:55 AM 33.8 °F 25.8 °F 24.8 °F 70% 29.89 in 10.0 mi West 10.4 mph - N/A   Clear
7:15 AM 35.6 °F 27.5 °F 24.8 °F 65% 29.90 in 10.0 mi West 11.5 mph - N/A   Clear
7:35 AM 35.6 °F 26.2 °F 24.8 °F 65% 29.90 in 10.0 mi WNW 15.0 mph 19.6 mph N/A   Clear
7:55 AM 35.6 °F 25.5 °F 24.8 °F 65% 29.91 in 10.0 mi WNW 17.3 mph 23.0 mph N/A   Clear
8:15 AM 37.4 °F 27.5 °F 24.8 °F 60% 29.91 in 10.0 mi NW 18.4 mph 25.3 mph N/A   Clear
8:35 AM 37.4 °F 27.5 °F 24.8 °F 60% 29.92 in 10.0 mi WNW 18.4 mph 25.3 mph N/A   Clear
8:55 AM 37.4 °F 28.9 °F 26.6 °F 65% 29.93 in 10.0 mi WNW 13.8 mph 25.3 mph N/A   Clear
9:15 AM 37.4 °F 25.9 °F 26.6 °F 65% 29.93 in 10.0 mi NW 25.3 mph 28.8 mph N/A   Clear
9:35 AM 35.6 °F 24.0 °F 26.6 °F 70% 29.94 in 10.0 mi WNW 23.0 mph 31.1 mph N/A   Clear
9:55 AM 35.6 °F 24.5 °F 24.8 °F 65% 29.95 in 10.0 mi NW 20.7 mph 28.8 mph N/A   Clear
10:15 AM 33.8 °F 21.9 °F 26.6 °F 75% 29.96 in 10.0 mi WNW 21.9 mph 28.8 mph N/A   Clear
10:55 AM 33.8 °F 21.6 °F 24.8 °F 70% 29.96 in 10.0 mi WNW 23.0 mph 32.2 mph N/A   Mostly Cloudy
11:15 AM 33.8 °F 21.6 °F 26.6 °F 75% 29.97 in 10.0 mi WNW 23.0 mph 29.9 mph N/A   Overcast
11:35 AM 33.8 °F 21.3 °F 24.8 °F 70% 29.96 in 10.0 mi WNW 24.2 mph 31.1 mph N/A   Mostly Cloudy
12:15 PM 35.6 °F 23.7 °F 24.8 °F 65% 29.98 in 10.0 mi WNW 24.2 mph 29.9 mph N/A   Partly Cloudy
12:35 PM 35.6 °F 23.4 °F 24.8 °F 65% 29.97 in 10.0 mi WNW 25.3 mph 34.5 mph N/A   Clear
12:55 PM 35.6 °F 24.2 °F 24.8 °F 65% 29.98 in 10.0 mi WNW 21.9 mph 32.2 mph N/A   Clear
1:15 PM 37.4 °F 26.1 °F 24.8 °F 60% 29.99 in 10.0 mi WNW 24.2 mph 28.8 mph N/A   Partly Cloudy
1:35 PM 35.6 °F 24.8 °F 24.8 °F 65% 30.00 in 10.0 mi NW 19.6 mph 24.2 mph N/A   Mostly Cloudy
1:55 PM 35.6 °F 24.5 °F 24.8 °F 65% 30.02 in 10.0 mi WNW 20.7 mph 27.6 mph N/A   Overcast
2:15 PM 33.8 °F 23.5 °F 23.0 °F 65% 30.03 in 10.0 mi NW 16.1 mph - N/A   Overcast
2:35 PM 33.8 °F 23.5 °F 24.8 °F 70% 30.03 in 10.0 mi NW 16.1 mph - N/A   Overcast
2:55 PM 35.6 °F 26.2 °F 23.0 °F 60% 30.04 in 10.0 mi NW 15.0 mph - N/A   Overcast
3:15 PM 35.6 °F 25.5 °F 23.0 °F 60% 30.04 in 10.0 mi WNW 17.3 mph 21.9 mph N/A   Overcast
3:35 PM 35.6 °F 25.5 °F 23.0 °F 60% 30.05 in 10.0 mi WNW 17.3 mph 23.0 mph N/A   Overcast
3:55 PM 35.6 °F 25.9 °F 21.2 °F 56% 30.06 in 10.0 mi WNW 16.1 mph 23.0 mph N/A   Overcast
4:15 PM 33.8 °F 23.2 °F 23.0 °F 65% 30.06 in 10.0 mi West 17.3 mph - N/A   Overcast
4:35 PM 35.6 °F 26.2 °F 21.2 °F 56% 30.07 in 10.0 mi WNW 15.0 mph - N/A   Overcast
5:35 PM 32.0 °F 20.8 °F 23.0 °F 69% 30.09 in 10.0 mi WNW 17.3 mph 25.3 mph N/A   Overcast
6:15 PM 30.2 °F 19.8 °F 23.0 °F 75% 30.10 in 10.0 mi NW 13.8 mph - N/A   Overcast
6:35 PM 30.2 °F 21.9 °F 23.0 °F 75% 30.11 in 10.0 mi NW 9.2 mph - N/A   Overcast
6:55 PM 30.2 °F 20.8 °F 23.0 °F 75% 30.11 in 10.0 mi WNW 11.5 mph - N/A   Overcast
7:15 PM 30.2 °F 19.3 °F 21.2 °F 69% 30.11 in 10.0 mi NW 15.0 mph - N/A   Overcast
7:35 PM 30.2 °F 19.8 °F 21.2 °F 69% 30.11 in 10.0 mi WNW 13.8 mph - N/A   Overcast
7:55 PM 30.2 °F 20.2 °F 21.2 °F 69% 30.12 in 10.0 mi WNW 12.7 mph - N/A   Overcast
8:15 PM 30.2 °F 18.9 °F 21.2 °F 69% 30.12 in 10.0 mi NW 16.1 mph - N/A   Overcast
8:35 PM 30.2 °F 19.8 °F 21.2 °F 69% 30.13 in 10.0 mi WNW 13.8 mph 19.6 mph N/A   Overcast
8:55 PM 30.2 °F 19.8 °F 21.2 °F 69% 30.13 in 10.0 mi WNW 13.8 mph - N/A   Overcast
9:15 PM 30.2 °F 19.8 °F 21.2 °F 69% 30.13 in 10.0 mi NW 13.8 mph - N/A   Overcast
9:35 PM 28.4 °F 17.0 °F 21.2 °F 74% 30.13 in 10.0 mi WNW 15.0 mph - N/A   Overcast
10:15 PM 28.4 °F 17.5 °F 21.2 °F 74% 30.14 in 10.0 mi NW 13.8 mph - N/A   Overcast
10:35 PM 28.4 °F 18.5 °F 21.2 °F 74% 30.15 in 10.0 mi NW 11.5 mph - N/A   Overcast
10:55 PM 28.4 °F 17.0 °F 21.2 °F 74% 30.15 in 10.0 mi NW 15.0 mph 20.7 mph N/A   Overcast
11:35 PM 28.4 °F 18.0 °F 21.2 °F 74% 30.16 in 10.0 mi NW 12.7 mph 16.1 mph N/A   Overcast
11:55 PM 28.4 °F 17.5 °F 21.2 °F 74% 30.16 in 10.0 mi WNW 13.8 mph 17.3 mph N/A   Overcast